Wind_Speed
11 15 19 23 27 31 34 38 41 45 48 52 55 56 56 56 55 55 55 57 60 64 68 69 71 72 74 74 72 70 67 65 64 64 66 67 68 69 71 73 73 69 60 45
12 15 18 21 25 29 33 37 41 46 49 53 57 58 59 58 58 56 56 58 61 64 67 69 70 71 73 73 71 69 66 64 62 62 64 66 67 68 69 71 72 71 65 53
13 15 17 20 24 27 32 37 41 46 49 54 57 60 61 61 60 58 58 59 61 64 67 68 69 70 71 71 70 68 65 63 61 61 62 65 66 67 67 69 71 71 68 61
15 17 20 23 25 28 32 36 41 45 49 53 57 61 64 64 63 61 60 60 61 64 67 68 68 69 70 70 69 67 64 62 60 59 61 63 64 65 66 67 68 70 70 65
19 20 21 24 28 31 34 36 41 45 49 53 57 61 64 66 65 63 61 60 62 64 66 67 67 68 69 69 68 66 63 60 59 58 59 60 62 64 64 65 66 68 69 68
23 25 26 28 30 32 37 40 44 47 51 54 58 61 64 67 67 65 62 61 62 64 66 66 66 67 67 68 68 66 62 59 57 57 58 59 60 62 63 63 64 66 67 68
25 27 29 30 33 35 37 41 44 47 51 54 57 60 64 67 68 67 64 62 62 63 65 66 65 65 66 67 66 65 62 59 56 56 56 57 58 59 61 62 63 64 65 66
28 29 32 32 34 37 38 41 43 47 50 53 57 60 64 67 68 68 66 63 62 63 64 65 64 64 65 66 66 64 61 58 56 55 54 55 56 57 58 60 60 60 61 63
30 30 35 35 36 38 40 42 44 47 50 54 57 60 64 67 69 69 67 64 62 62 63 64 63 63 63 64 65 63 61 58 56 54 53 53 54 54 55 57 58 58 59 60
34 31 36 37 38 41 43 44 46 47 50 54 57 60 63 66 68 69 68 65 62 62 62 63 62 61 62 63 63 62 59 57 55 53 53 52 52 52 53 54 55 56 57 58
37 36 38 37 40 43 45 47 48 48 50 53 57 60 62 65 67 68 68 66 63 61 61 62 61 60 61 61 62 61 59 56 54 53 52 51 51 52 52 53 55 56 56 56
40 41 43 40 41 45 47 49 49 50 51 53 56 59 62 64 66 67 68 66 63 60 60 60 60 59 59 59 60 60 58 56 54 52 50 50 50 51 52 52 53 53 54 55
44 46 47 44 45 47 49 51 52 51 52 54 56 58 61 63 65 66 67 66 63 59 59 59 59 57 57 57 58 58 57 55 53 51 50 48 47 47 48 50 51 51 51 51
45 48 49 47 48 49 51 53 53 53 53 54 56 58 60 62 64 65 66 66 63 59 58 58 57 56 55 56 56 56 55 54 52 51 50 49 47 46 46 46 47 49 49 49
43 48 51 51 51 52 53 54 55 55 54 55 56 57 59 61 63 64 65 66 62 58 56 56 55 54 53 54 54 55 54 53 52 50 49 48 47 46 45 45 45 46 46 46
42 45 48 50 52 53 54 55 56 56 56 56 57 57 58 59 61 63 64 65 62 57 55 54 53 53 52 52 52 53 53 52 51 50 49 48 47 46 44 43 43 44 44 44
42 43 45 48 51 53 55 56 57 57 57 57 56 56 57 58 60 61 62 64 62 57 54 53 52 51 50 50 50 51 51 51 50 49 48 47 46 45 44 42 41 42 42 43
44 43 45 48 51 54 56 57 58 58 58 57 55 54 56 57 59 60 61 63 61 56 53 52 50 49 49 48 49 49 50 50 50 49 48 46 46 45 44 42 40 39 40 40
51 49 48 49 51 54 57 58 59 59 58 56 54 53 55 56 58 59 60 62 60 56 52 51 49 48 47 46 47 47 48 48 48 48 47 46 45 44 43 42 40 38 38 38
61 58 56 54 53 55 56 58 59 59 57 55 53 53 54 55 56 57 58 60 59 55 51 49 48 46 46 45 45 45 46 47 47 47 47 45 44 44 43 42 40 38 36 36
68 66 63 59 56 54 55 57 58 58 57 55 52 52 53 54 55 56 57 59 58 55 50 48 47 45 44 44 43 44 44 45 46 46 46 45 44 43 42 42 40 37 36 34
73 71 67 61 57 53 53 56 58 58 57 55 53 52 53 53 54 54 55 57 57 54 49 47 45 44 43 43 42 42 42 43 44 45 45 44 43 42 42 41 39 37 35 33
71 71 69 64 59 55 54 56 57 58 57 55 53 52 52 53 53 53 54 55 56 53 49 46 44 42 41 41 41 40 41 41 43 43 44 43 42 41 41 40 38 36 34 33
65 63 63 61 59 57 56 57 58 58 57 54 52 52 52 52 51 51 52 54 55 52 48 44 43 41 40 40 40 39 39 40 41 42 42 42 41 40 39 39 37 35 33 32
61 58 57 56 55 55 56 58 59 58 56 54 52 52 51 50 50 51 51 53 53 51 47 43 41 40 39 38 38 38 37 38 39 40 41 41 40 39 38 38 36 34 32 31
57 55 54 53 53 55 58 59 60 58 56 54 53 52 50 49 49 50 50 51 52 50 46 42 40 39 38 37 37 36 36 36 37 38 39 39 39 38 37 36 34 32 31 30
55 54 53 52 52 55 57 59 60 58 57 55 53 51 50 49 48 49 49 50 50 48 44 41 39 38 37 36 35 35 34 34 35 36 37 38 37 36 35 34 32 30 29 29
Wind_Direction
5 6 7 6 5 6 7 7 6 4 2 1 358 356 354 352 348 346 344 345 346 347 348 349 349 349 349 349 350 350 352 353 355 357 359 1 2 4 5 6 7 8 7 2
347 354 358 358 359 359 0 2 3 3 2 1 359 356 355 353 350 347 346 346 347 348 349 350 350 351 351 351 351 352 353 355 356 358 0 2 4 5 6 8 9 10 11 9
327 337 343 348 353 355 356 357 360 360 360 360 359 357 356 354 351 348 347 347 348 349 350 351 352 352 352 352 352 353 355 356 358 359 1 4 5 7 8 9 11 12 13 13
311 323 334 340 344 348 353 353 356 357 357 357 357 357 356 354 352 350 348 347 348 350 351 352 353 354 353 353 354 355 356 357 359 0 2 4 6 8 9 11 12 14 15 16
303 314 325 330 336 342 347 350 352 354 355 355 355 355 355 354 353 351 348 348 348 350 351 353 354 355 354 354 355 356 358 358 359 1 3 5 7 9 11 12 13 14 16 17
298 309 320 326 330 336 340 345 349 351 352 353 353 354 354 353 353 351 349 348 349 350 352 353 355 355 355 356 357 358 359 359 360 2 4 6 8 10 12 13 14 15 17 18
293 304 312 319 324 330 337 342 344 347 349 350 351 352 352 352 352 351 349 348 349 350 352 353 355 356 356 356 358 359 360 360 1 3 5 7 9 11 12 14 15 16 17 19
287 299 306 313 318 324 331 336 339 343 345 347 348 349 351 351 351 351 349 348 348 350 351 353 355 356 356 357 358 359 0 1 2 3 5 8 9 11 13 15 16 16 17 19
283 294 300 306 312 317 324 330 335 338 342 344 346 347 348 349 350 350 349 348 348 349 351 352 355 356 357 357 358 359 0 1 2 3 5 8 10 11 13 15 16 17 18 19
279 288 293 301 307 312 319 324 330 334 338 342 343 345 346 348 348 349 349 348 347 348 350 352 354 356 357 358 358 359 0 1 2 3 5 7 10 11 13 15 16 17 19 20
277 282 286 294 301 307 313 319 324 330 334 338 341 342 343 345 347 347 348 347 347 347 349 351 353 356 357 358 359 360 1 1 2 2 3 6 8 11 13 14 15 17 18 19
275 280 283 290 296 302 308 313 319 325 330 334 337 339 341 342 344 346 347 347 346 346 347 349 352 355 357 358 359 360 1 1 2 2 3 4 6 8 11 13 15 15 16 18
274 278 283 289 293 299 304 309 314 319 325 330 333 336 338 339 342 344 345 346 345 345 346 348 350 353 356 358 358 359 0 1 2 2 3 3 4 7 9 11 13 14 15 17
269 275 281 286 291 295 300 304 308 314 320 325 329 332 335 337 339 342 343 345 344 344 345 347 349 352 355 357 358 359 360 0 1 1 2 2 3 4 6 9 11 13 14 15
266 271 276 282 286 290 295 299 303 309 315 321 325 328 331 334 336 339 342 343 343 343 343 345 348 351 354 357 358 359 359 360 0 1 1 1 2 2 4 6 9 11 12 13
264 266 272 277 282 287 291 295 299 305 311 316 320 324 327 330 334 337 339 341 342 341 342 344 346 349 352 355 357 358 359 359 360 360 0 1 1 1 2 3 5 8 10 12
263 265 268 272 277 282 286 290 295 300 306 311 315 320 324 327 331 334 337 340 340 340 340 342 344 347 351 354 356 357 358 359 359 359 359 0 1 1 1 1 3 5 7 9
263 263 265 269 273 277 281 285 290 295 301 306 311 316 320 324 328 331 335 337 338 338 338 340 343 345 349 352 355 357 358 359 359 358 358 359 0 1 1 1 1 3 5 7
262 262 261 264 268 273 277 282 287 292 297 302 308 312 317 321 325 328 332 335 336 336 336 338 341 344 347 350 353 355 357 358 358 358 357 358 359 0 1 1 1 1 3 5
262 262 262 261 264 268 273 278 283 288 293 299 304 309 313 318 322 325 329 332 334 334 334 336 339 341 344 347 351 354 356 357 357 357 356 357 358 359 0 1 1 0 1 3
262 263 263 263 265 267 270 275 280 285 290 295 300 305 310 314 318 322 326 330 332 332 332 333 336 339 342 345 349 352 354 356 356 356 356 356 357 358 359 360 0 360 1 2
260 262 263 264 265 267 269 272 276 281 286 291 296 301 306 310 315 319 322 327 330 330 330 331 334 337 340 343 346 350 353 354 355 355 355 354 355 357 358 359 359 360 0 1
259 261 261 262 264 265 266 269 273 277 282 287 292 297 302 306 311 315 319 324 327 328 327 328 331 334 338 341 344 348 351 352 353 354 354 353 354 355 357 358 359 359 360 1
260 260 260 260 260 261 263 266 269 273 277 283 288 293 298 303 307 311 316 321 325 326 325 325 328 331 335 339 342 345 348 351 352 353 353 352 352 354 355 357 357 358 359 1
260 259 258 258 257 257 258 261 264 269 274 279 284 289 293 298 303 308 313 318 322 323 322 323 325 328 332 336 339 343 346 349 350 351 351 351 351 352 354 356 356 357 359 0
258 257 256 255 254 253 254 257 261 266 270 275 279 284 289 294 300 305 310 315 319 320 319 320 321 325 329 333 337 340 343 347 349 349 349 350 350 351 353 354 356 357 359 360
254 253 252 252 251 252 253 255 258 262 266 271 275 280 286 291 297 302 307 312 316 317 316 316 318 321 326 329 333 337 341 344 347 348 348 348 348 349 350 353 355 356 358 359
Height
5865 5862 5858 5854 5849 5843 5837 5831 5824 5817 5808 5799 5789 5778 5767 5755 5744 5732 5720 5708 5695 5681 5666 5650 5634 5617 5600 5583 5565 5548 5532 5516 5501 5485 5468 5451 5434 5417 5399 5381 5362 5343 5327 5314
5863 5860 5856 5852 5848 5842 5835 5828 5821 5813 5805 5796 5786 5775 5763 5751 5739 5728 5715 5703 5690 5676 5661 5646 5630 5613 5597 5580 5564 5547 5531 5515 5500 5485 5469 5453 5436 5419 5402 5385 5367 5349 5332 5318
5860 5857 5854 5851 5846 5840 5833 5826 5818 5810 5802 5792 5783 5771 5759 5747 5736 5723 5711 5699 5686 5672 5657 5642 5626 5610 5595 5579 5562 5546 5530 5514 5500 5485 5470 5454 5438 5422 5406 5390 5372 5355 5338 5323
5857 5855 5851 5849 5842 5837 5831 5823 5815 5807 5798 5789 5779 5768 5756 5744 5732 5719 5707 5695 5682 5669 5654 5639 5623 5608 5593 5577 5561 5545 5529 5514 5500 5486 5471 5456 5441 5426 5410 5394 5378 5362 5346 5330
5853 5850 5847 5844 5838 5831 5826 5820 5812 5803 5795 5785 5775 5764 5752 5741 5728 5716 5703 5691 5679 5665 5651 5636 5621 5606 5591 5576 5560 5544 5529 5514 5501 5488 5474 5459 5444 5430 5415 5400 5385 5370 5354 5338
5848 5844 5841 5839 5833 5826 5821 5814 5807 5798 5790 5781 5771 5761 5750 5737 5725 5712 5700 5688 5675 5662 5648 5634 5619 5604 5590 5575 5560 5544 5530 5516 5503 5489 5475 5461 5447 5433 5419 5405 5391 5376 5361 5346
5842 5838 5836 5833 5827 5821 5816 5810 5802 5794 5786 5777 5768 5758 5747 5734 5722 5709 5697 5684 5672 5659 5646 5632 5617 5603 5589 5575 5560 5545 5531 5517 5504 5491 5477 5464 5450 5437 5423 5409 5395 5382 5368 5354
5837 5834 5832 5827 5821 5816 5812 5805 5798 5790 5782 5774 5764 5754 5743 5731 5719 5706 5694 5681 5669 5657 5644 5630 5616 5602 5588 5575 5560 5545 5532 5518 5506 5493 5480 5467 5454 5441 5429 5416 5403 5391 5378 5365
5832 5831 5825 5821 5816 5811 5806 5800 5793 5786 5778 5770 5760 5750 5740 5728 5716 5704 5691 5679 5666 5654 5642 5628 5615 5601 5588 5574 5559 5545 5531 5519 5507 5495 5483 5471 5459 5447 5435 5423 5411 5399 5386 5373
5825 5825 5819 5814 5810 5805 5800 5794 5788 5781 5774 5765 5756 5747 5736 5725 5713 5701 5688 5676 5664 5652 5640 5627 5614 5600 5587 5573 5559 5545 5532 5519 5507 5496 5485 5474 5463 5452 5440 5429 5418 5406 5393 5382
5816 5816 5812 5810 5804 5799 5794 5788 5782 5776 5768 5760 5752 5743 5733 5722 5710 5698 5686 5673 5661 5649 5638 5625 5613 5599 5586 5573 5560 5546 5533 5520 5508 5497 5486 5475 5466 5456 5445 5433 5421 5410 5399 5389
5808 5806 5802 5803 5798 5792 5787 5781 5776 5769 5762 5755 5747 5738 5729 5718 5707 5695 5683 5671 5659 5647 5636 5624 5612 5599 5586 5573 5560 5547 5534 5522 5510 5499 5488 5478 5467 5456 5446 5437 5426 5415 5405 5394
5798 5795 5792 5792 5789 5784 5779 5774 5769 5763 5756 5749 5742 5733 5724 5714 5704 5692 5680 5668 5656 5645 5634 5622 5610 5598 5585 5573 5560 5547 5535 5523 5512 5501 5491 5482 5472 5462 5452 5441 5430 5421 5411 5402
5790 5785 5782 5782 5780 5776 5771 5766 5761 5756 5750 5743 5736 5728 5719 5710 5700 5689 5677 5665 5653 5642 5631 5620 5609 5597 5584 5572 5560 5548 5536 5525 5514 5503 5493 5483 5474 5465 5455 5446 5437 5427 5417 5408
5781 5777 5774 5773 5771 5767 5762 5758 5753 5748 5742 5736 5730 5722 5714 5705 5695 5685 5673 5662 5650 5639 5628 5618 5607 5595 5583 5572 5560 5548 5537 5525 5514 5504 5494 5484 5475 5466 5457 5448 5440 5431 5422 5413
5770 5767 5765 5763 5760 5757 5753 5749 5744 5739 5734 5729 5723 5716 5709 5700 5691 5680 5669 5658 5647 5636 5626 5615 5604 5594 5582 5571 5560 5548 5537 5526 5515 5505 5495 5485 5476 5467 5458 5450 5442 5434 5426 5418
5757 5757 5755 5753 5750 5746 5743 5739 5735 5730 5726 5722 5716 5710 5702 5694 5685 5676 5665 5654 5643 5633 5623 5612 5602 5592 5581 5570 5559 5548 5537 5526 5516 5506 5496 5487 5477 5468 5460 5451 5443 5435 5427 5420
5744 5744 5743 5741 5739 5735 5732 5729 5725 5721 5717 5713 5708 5702 5695 5687 5679 5670 5660 5650 5639 5629 5619 5609 5599 5589 5579 5569 5558 5548 5537 5526 5516 5506 5497 5487 5478 5470 5461 5452 5444 5437 5429 5422
5728 5728 5728 5727 5725 5722 5720 5717 5713 5710 5707 5704 5700 5694 5687 5681 5673 5665 5655 5645 5635 5625 5615 5606 5596 5586 5577 5567 5557 5547 5536 5526 5516 5506 5497 5488 5479 5470 5462 5453 5445 5437 5431 5424
5707 5708 5709 5710 5710 5709 5707 5704 5701 5699 5696 5693 5690 5685 5679 5673 5666 5658 5649 5640 5630 5620 5611 5602 5592 5583 5574 5565 5555 5546 5536 5525 5516 5506 5497 5488 5479 5471 5462 5454 5446 5438 5431 5425
5685 5686 5688 5692 5695 5696 5695 5692 5688 5686 5685 5683 5680 5675 5670 5665 5658 5651 5643 5634 5625 5615 5606 5597 5588 5580 5571 5562 5553 5544 5534 5524 5515 5506 5497 5488 5479 5471 5463 5454 5447 5439 5432 5426
5663 5665 5669 5675 5679 5681 5681 5678 5675 5674 5673 5671 5669 5665 5661 5656 5650 5643 5636 5628 5619 5610 5601 5593 5584 5576 5567 5559 5550 5541 5532 5523 5514 5505 5496 5487 5479 5471 5463 5455 5447 5440 5433 5427
5642 5645 5650 5658 5663 5666 5666 5664 5662 5661 5660 5659 5657 5654 5650 5646 5641 5635 5628 5621 5612 5604 5595 5587 5580 5572 5563 5555 5547 5539 5530 5521 5512 5503 5495 5486 5478 5470 5463 5455 5448 5440 5434 5428
5621 5625 5632 5639 5645 5648 5650 5650 5648 5647 5647 5646 5645 5643 5639 5636 5631 5626 5620 5613 5605 5597 5589 5582 5574 5567 5559 5551 5544 5536 5528 5519 5510 5502 5493 5485 5477 5470 5462 5455 5448 5441 5434 5428
5600 5606 5613 5619 5625 5630 5632 5631 5632 5632 5633 5633 5632 5630 5628 5625 5621 5616 5611 5605 5598 5590 5582 5576 5569 5562 5554 5547 5540 5532 5525 5517 5508 5500 5492 5484 5476 5468 5461 5454 5447 5441 5435 5429
5579 5586 5594 5600 5606 5609 5612 5614 5616 5617 5618 5618 5618 5617 5616 5614 5610 5606 5601 5596 5589 5582 5575 5569 5563 5556 5550 5543 5536 5529 5521 5514 5506 5498 5490 5482 5474 5467 5460 5453 5447 5441 5435 5429
5560 5567 5575 5582 5587 5591 5594 5597 5599 5601 5603 5604 5604 5604 5603 5602 5599 5595 5591 5586 5580 5574 5568 5562 5556 5550 5544 5538 5531 5524 5518 5511 5503 5495 5487 5480 5472 5465 5459 5452 5446 5440 5435 5429